Flag for United Kingdom Weather past 2 weeks in Bury, England, United Kingdom

Now
54 °F

Mostly cloudy.


Feels Like: 49 °F
Forecast: N/A
Wind: 15 mph from South

Location: Manchester Airport

Current Time: Oct 26, 2014 at 1:52:35 AM

Latest Report: Oct 26, 2014 at 1:20 AM


Visibility: N/A

Pressure: 30.01 "Hg

Humidity: 82%

Dew point: 48 °F

Location of BuryLocation

Historic Weather in Bury — Graph

°F

Bury temperature yesterday

Maximum temperature yesterday: 57 °F (at 3:20 PM)
Minimum temperature yesterday: 45 °F (at 3:20 AM)
Average temperature yesterday: 51 °F

Past Weeks' High & Low Weather Summary

 TemperatureHumidityPressure
High66 °F (Oct 18, 2:50 PM)100% (Oct 11, 3:20 AM)30.21 "Hg (Oct 11, 3:20 AM)
Low36 °F (Oct 12, 6:50 AM)58% (Oct 21, 1:20 PM)29.36 "Hg (Oct 21, 4:50 AM)
Average53 °F87%29.80 "Hg
* Reported Oct 11 1:20 AM — Oct 26 1:20 AM, Bury, Weather by CustomWeather, © 2014

Note: Actual official high and low records may vary slightly from our data, if they occured in-between our weather recording intervals... More about our weather records

Advertising

Bury weather history for previous 24 hours

 ConditionsComfort  
Time TempWeatherWind HumidityBarometerVisibility
1:20 AM
Oct 26
54 °FPartly cloudy.14 mph82%30.01 "HgN/A
12:50 AM54 °FPassing clouds.14 mph82%30.01 "HgN/A
12:20 AM54 °FPassing clouds.14 mph82%30.01 "HgN/A
11:50 PM
Oct 25
52 °FOvercast.14 mph88%30.01 "HgN/A
11:20 PM52 °FClear.15 mph88%29.98 "Hg10 mi
10:50 PM52 °FClear.14 mph88%29.98 "Hg10 mi
10:20 PM52 °FPassing clouds.20 mph88%29.98 "HgN/A
9:50 PM52 °FOvercast.14 mph88%29.98 "HgN/A
9:20 PM52 °FPassing clouds.10 mph88%29.98 "HgN/A
8:50 PM54 °FPassing clouds.13 mph82%29.98 "HgN/A
8:20 PM54 °FPartly cloudy.12 mph82%29.98 "HgN/A
7:50 PM54 °FPassing clouds.10 mph82%29.98 "HgN/A
7:20 PM54 °FPassing clouds.10 mph82%29.98 "HgN/A
6:50 PM54 °FPartly sunny.8 mph82%29.98 "HgN/A
6:20 PM54 °FPartly sunny.15 mph77%29.98 "HgN/A
5:50 PM55 °FPartly sunny.17 mph72%29.95 "HgN/A
5:20 PM55 °FBroken clouds.17 mph72%29.95 "HgN/A
4:50 PM55 °FBroken clouds.20 mph72%29.95 "HgN/A
4:20 PM55 °FScattered clouds.16 mph77%29.95 "HgN/A
3:50 PM55 °FScattered clouds.15 mph82%29.95 "HgN/A
3:20 PM57 °FBroken clouds.17 mph77%29.92 "HgN/A
2:50 PM55 °FPartly sunny.16 mph82%29.92 "HgN/A
2:20 PM55 °FBroken clouds.16 mph82%29.92 "HgN/A
1:50 PM55 °FScattered showers. Partly sunny.13 mph82%29.95 "HgN/A
1:20 PM54 °FScattered clouds.13 mph88%29.95 "HgN/A
12:50 PM54 °FCloudy.14 mph88%29.95 "HgN/A
12:20 PM55 °FScattered showers. Partly sunny.15 mph82%29.95 "HgN/A
11:50 AM52 °FPartly sunny.13 mph94%29.95 "HgN/A
11:20 AM52 °FPartly sunny.17 mph88%29.95 "HgN/A
10:50 AM50 °FPartly sunny.13 mph94%29.95 "HgN/A
10:20 AM50 °FDrizzle. Partly sunny.13 mph94%29.95 "HgN/A
9:50 AM48 °FScattered showers. Partly sunny.14 mph100%29.95 "HgN/A
9:20 AM48 °FScattered showers. Partly sunny.12 mph94%29.95 "HgN/A
8:50 AM48 °FPassing clouds.15 mph94%29.95 "HgN/A
8:20 AM48 °FScattered showers. Passing clouds.12 mph94%29.95 "HgN/A
7:50 AM48 °FPassing clouds.12 mph94%29.92 "HgN/A
7:20 AM46 °FPassing clouds.10 mph93%29.92 "HgN/A
6:50 AM48 °FPassing clouds.12 mph94%29.92 "Hg4 mi
6:20 AM46 °FClear.10 mph100%29.92 "Hg10 mi
5:50 AM46 °FPassing clouds.9 mph100%29.92 "HgN/A
5:20 AM46 °FClear.12 mph93%29.92 "Hg10 mi
4:50 AM45 °FClear.9 mph100%29.92 "Hg10 mi
4:20 AM45 °FClear.8 mph100%29.92 "Hg10 mi
3:50 AM45 °FClear.9 mph100%29.92 "Hg10 mi
3:20 AM45 °FClear.8 mph100%29.92 "Hg10 mi
2:50 AM46 °FClear.8 mph93%29.92 "Hg10 mi
2:20 AM46 °FCool.7 mph93%29.92 "HgN/A
1:50 AM46 °FCool.6 mph100%29.95 "HgN/A
1:20 AM46 °FCool.8 mph93%29.95 "HgN/A
Weather by CustomWeather, © 2014

See weather overviewHow to use our weather pages